SL-14 R/B

Satellite information

Favourite Embed

Satellite Type and Status

ROCKET BODYIN ORBIT

Key statistics

Satellite SL-14 R/B at a glance.

Uptime

13217

Days in orbit

Revolutions

≈ 12.4

Per day

Orbit

LEO

Low Earth Orbit

Inclination

73.6

Latest

Satellite identification and parameters

Extended collection of information and parameters for SL-14 R/B.

Object identification

Identified? True

Debris? False

Object name: SL-14 R/B

International designator: 1989-068B

Object number (NORAD): 20197

Object ID (CCSDS): 20197

Country: COMMONWEALTH OF INDEPENDENT STATES (CIS)

Current information (Y/N): Y

RCS size: LARGE

Orbital parameters

Period: 116.057 minutes

Inclination: 73.565 deg

SMA: 7881.469 km

Apoapsis: 1522.083 km

Periapsis: 1484.586 km

RAAN: 236.407 deg

Eccentricy: 0.0023788

Argument of periapsis: 153.3449 deg

Mean anomaly: 19.848 deg

Mean motion: 12.40771958 rev/day

Mean motion (dot): -0.00000031 rev/day2

B* drag term: -0.000098496 1/REarth

Two-line elements (TLE)

Creation date: Nov. 3, 2025, 11:16 p.m.

Reference frame: TEME

Reference center: EARTH

Epoch: Nov. 3, 2025, 2:07 p.m. UTC

TLE line 0: 0 SL-14 R/B

TLE line 1: 1 20197U 89068B 25307.58837186 -.00000031 00000-0 -98496-4 0 9999

TLE line 2: 2 20197 73.5650 236.4070 0023788 153.3449 19.8480 12.40771958638063

Live tracking on map

Real-time ground track for satellite SL-14 R/B.

In-orbit conjunctions

A list of the most updated potential collisions computed for object SL-14 R/B.

Target Orbit TCA Probability of collision Miss distance Type
DELTA 1 DEB SSO 2025-06-30 21:11:25 0.0001062107 132.0 (m) DEBRIS
DELTA 1 DEB SSO 2024-06-08 05:19:42 0.0001065238 545.0 (m) DEBRIS

Associated space launch

A satellite for the GEO-IK geodetic system

SL-14 R/B was lifted into orbit during the mission ‘Tsiklon-3 | Geo-IK 11’, on board a Tsiklon-3 space rocket.

The launch took place on Aug. 28, 1989, 12:14 a.m. from 32/2.

For more information about the launch, click the button.

Launch to space Tsiklon-3 | Geo-IK 11
Tsiklon-3 | Geo-IK 11

Agency: N/A

Status: Launch Successful

Launch date: Aug. 28, 1989, 12:14 a.m. UTC

Rocket: Tsiklon-3

Launch pad: 32/2

Location: Plesetsk Cosmodrome, Russian Federation

...

Latest news about this satellite

There are no fresh news available about this satellite. Check back as we update our databases every day.


Newsletter sign-up

Weekly statistics, charts and insights to help you stay on top of the space industry.